This demonstration page uses our WeatherBlox Daily Observations layout. Learn more.

Left ArrowRight Arrow

39.51506, -84.39828

Hourly Observations for January 31, 2015

Temp ( °F °C ) Dew Point ( °F °C ) Humidity (%) Winds ( mph kmh ) Pressure ( in mb ) Visibility ( mi km ) Precip ( " mm )
12:15 am 00:15 Clear 19 -7 15 -9.5 83 83 Calm 30.50 1033 10 16 0.00 0.00
12:35 am 00:35 Clear 19 -7 15 -9.5 83 83 Calm 30.50 1033 10 16 0.00 0.00
12:55 am 00:55 Clear 18 -7.8 14 -10.2 83 83 Calm 30.50 1033 10 16 0.00 0.00
1:15 am 01:15 Clear 19 -7.4 14 -9.8 83 83 Calm 30.50 1033 10 16 0.00 0.00
1:35 am 01:35 Clear 19 -7.4 15 -9.7 84 84 Calm 30.50 1033 10 16 0.00 0.00
1:55 am 01:55 Clear 17 -8.3 13 -10.5 84 84 Calm 30.50 1033 10 16 0.00 0.00
2:15 am 02:15 Clear 18 -8 13 -10.3 84 84 Calm 30.50 1033 10 16 0.00 0.00
2:35 am 02:35 Clear 18 -8 14 -10.2 84 84 Calm 30.50 1033 10 16 0.00 0.00
2:55 am 02:55 Clear 17 -8.5 13 -10.5 86 86 Calm 30.48 1032 10 16 0.00 0.00
3:15 am 03:15 Clear 17 -8.5 13 -10.5 86 86 Calm 30.48 1032 10 16 0.00 0.00
3:35 am 03:35 Clear 17 -8.5 13 -10.5 86 86 Calm 30.48 1032 10 16 0.00 0.00
3:55 am 03:55 Clear 17 -8.5 13 -10.5 86 86 Calm 30.48 1032 10 16 0.00 0.00
4:15 am 04:15 Clear 17 -8.3 13 -10.5 84 84 Calm 30.48 1032 10 16 0.00 0.00
4:35 am 04:35 Clear 17 -8.5 13 -10.5 86 86 Calm 30.48 1032 10 16 0.00 0.00
4:55 am 04:55 Clear 17 -8.5 13 -10.5 86 86 Calm 30.45 1031 10 16 0.00 0.00
5:15 am 05:15 Clear 17 -8.5 13 -10.5 86 86 Calm 30.45 1031 10 16 0.00 0.00
5:35 am 05:35 Clear 17 -8.5 13 -10.5 86 86 Calm 30.45 1031 10 16 0.00 0.00
5:55 am 05:55 Clear 17 -8.5 13 -10.5 86 86 Calm 30.45 1031 10 16 0.00 0.00
6:15 am 06:15 Clear 17 -8.5 13 -10.6 85 85 Calm 30.45 1031 10 16 0.00 0.00
6:35 am 06:35 Clear 17 -8.5 13 -10.6 85 85 Calm 30.45 1031 10 16 0.00 0.00
6:55 am 06:55 Clear 17 -8.5 13 -10.5 86 86 Calm 30.45 1031 10 16 0.00 0.00
7:15 am 07:15 Clear 17 -8.5 13 -10.5 86 86 Calm 30.45 1031 10 16 0.00 0.00
7:35 am 07:35 Clear 17 -8.5 13 -10.5 86 86 Calm 30.45 1031 10 16 0.00 0.00
7:55 am 07:55 Sunny 17 -8.5 13 -10.5 86 86 Calm 30.45 1031 10 16 0.00 0.00
8:15 am 08:15 Sunny 17 -8.5 13 -10.6 85 85 Calm 30.45 1031 10 16 0.00 0.00
8:35 am 08:35 Sunny 19 -7 15 -9.2 85 85 Calm 30.45 1031 10 16 0.00 0.00
8:55 am 08:55 Sunny 20 -6.8 16 -9 85 85 Calm 30.45 1031 10 16 0.00 0.00
9:15 am 09:15 Sunny 22 -5.5 18 -7.6 85 85 SSW 5 7 30.45 1031 10 16 0.00 0.00
9:35 am 09:35 Sunny 25 -4.1 19 -7.3 79 79 SW 6 9 30.45 1031 10 16 0.00 0.00
9:55 am 09:55 Partly Cloudy 27 -2.8 21 -6.3 77 77 SSW 9 15 30.42 1030 10 16 0.00 0.00
10:15 am 10:15 Cloudy 29 -1.5 21 -6 72 72 SSW 8 13 30.42 1030 10 16 0.00 0.00
10:35 am 10:35 Cloudy 29 -1.5 20 -6.6 69 69 SSW 7 11 30.42 1030 10 16 0.00 0.00
10:55 am 10:55 Partly Cloudy 32 -0.1 21 -6.3 63 63 SSW 8 13 30.42 1030 10 16 0.00 0.00
11:15 am 11:15 Sunny 34 1.2 21 -6.1 59 59 SSW 9 15 30.42 1030 10 16 0.00 0.00
11:35 am 11:35 Sunny 34 1.2 19 -7 55 55 SW 9 15 30.42 1030 10 16 0.00 0.00
11:55 am 11:55 Sunny 34 1.2 18 -7.9 51 51 SW 12 19 30.39 1029 10 16 0.00 0.00
12:15 pm 12:15 Sunny 35 1.8 18 -8 49 49 WSW 12 19 30.39 1029 10 16 0.00 0.00
12:35 pm 12:35 Sunny 37 2.6 19 -7.2 49 49 SW 9 15 30.39 1029 10 16 0.00 0.00
12:55 pm 12:55 Sunny 37 2.6 18 -7.7 47 47 SSW 7 11 30.36 1028 10 16 0.00 0.00
1:15 pm 13:15 Sunny 38 3.3 19 -7.3 46 46 SW 12 19 30.36 1028 10 16 0.00 0.00
1:35 pm 13:35 Sunny 37 2.6 18 -7.6 47 47 WSW 9 15 30.36 1028 10 16 0.00 0.00
1:55 pm 13:55 Sunny 39 4 20 -6.7 46 46 SW 10 17 30.33 1027 10 16 0.00 0.00
2:15 pm 14:15 Sunny 39 4 20 -6.7 46 46 WSW 7 11 30.33 1027 10 16 0.00 0.00
2:35 pm 14:35 Partly Cloudy 38 3.6 20 -6.8 47 47 SW 9 15 30.33 1027 10 16 0.00 0.00
2:55 pm 14:55 Mostly Cloudy 39 4 20 -6.4 47 47 SSW 12 19 30.33 1027 10 16 0.00 0.00
3:15 pm 15:15 Partly Cloudy 39 4 21 -6 48 48 SSW 10 17 30.33 1027 10 16 0.00 0.00
3:35 pm 15:35 Sunny 39 4 21 -6 48 48 SW 8 13 30.33 1027 10 16 0.00 0.00
3:55 pm 15:55 Sunny 39 4 20 -6.4 47 47 SSW 12 19 30.30 1026 10 16 0.00 0.00
4:15 pm 16:15 Sunny 39 4 21 -6.2 48 48 SSW 12 19 30.30 1026 10 16 0.00 0.00
4:35 pm 16:35 Sunny 39 4 21 -6.3 47 47 SW 9 15 30.30 1026 10 16 0.00 0.00
4:55 pm 16:55 Sunny 39 4 22 -5.7 50 50 SW 7 11 30.30 1026 10 16 0.00 0.00
5:15 pm 17:15 Sunny 37 3 20 -6.5 50 50 SW 8 13 30.30 1026 10 16 0.00 0.00
5:35 pm 17:35 Sunny 37 2.8 20 -6.5 51 51 SW 8 13 30.30 1026 10 16 0.00 0.00
5:55 pm 17:55 Sunny 37 2.6 22 -5.8 54 54 SW 7 11 30.30 1026 10 16 0.00 0.00
6:15 pm 18:15 Clear 37 2.6 22 -5.4 56 56 SW 7 11 30.30 1026 10 16 0.00 0.00
6:35 pm 18:35 Partly Cloudy 37 2.6 22 -5.8 54 54 SSW 6 9 30.30 1026 10 16 0.00 0.00
7:15 pm 19:15 Cloudy 37 2.9 20 -6.5 50 50 SSW 7 11 30.30 1026 10 16 0.00 0.00
7:35 pm 19:35 Cloudy 37 2.6 20 -6.5 52 52 SSW 7 11 30.30 1026 10 16 0.00 0.00
7:55 pm 19:55 Cloudy 37 2.6 22 -5.8 54 54 SW 5 7 30.30 1026 10 16 0.00 0.00
8:15 pm 20:15 Cloudy 37 2.6 21 -6 53 53 SSW 6 9 30.30 1026 10 16 0.00 0.00
8:35 pm 20:35 Cloudy 37 2.6 22 -5.6 55 55 SSW 6 9 30.30 1026 10 16 0.00 0.00
8:55 pm 20:55 Cloudy with Drizzle 37 2.6 22 -5.7 55 55 SSW 6 9 30.30 1026 10 16 0.00 0.00
9:15 pm 21:15 Cloudy with Drizzle 37 2.6 22 -5.3 56 56 SW 6 9 30.30 1026 10 16 0.00 0.00
9:35 pm 21:35 Cloudy 37 2.6 23 -5 58 58 SW 6 9 30.30 1026 10 16 0.00 0.00
9:55 pm 21:55 Cloudy 37 2.6 24 -4.2 61 61 SW 7 11 30.30 1026 10 16 0.00 0.00
10:15 pm 22:15 Cloudy 37 2.6 25 -3.9 63 63 WSW 8 13 30.27 1025 10 16 0.00 0.00
10:35 pm 22:35 Cloudy 37 2.6 26 -3.1 66 66 WSW 10 17 30.27 1025 10 16 0.00 0.00
10:55 pm 22:55 Cloudy 37 2.6 28 -2.5 69 69 SW 6 9 30.27 1025 10 16 0.00 0.00
11:15 pm 23:15 Cloudy 37 2.6 28 -2 72 72 SW 3 6 30.27 1025 10 16 0.00 0.00
11:35 pm 23:35 Cloudy 37 2.6 30 -1.2 76 76 SW 5 7 30.27 1025 7 11 0.00 0.00
11:55 pm 23:55 Cloudy with Haze 35 1.9 30 -1.2 80 80 SW 6 9 30.27 1025 5 8 0.00 0.00

Powered by AerisWeather